Flag for Malaysia Weather past 2 weeks in Kuching, Malaysia

Now
84 °F

Partly sunny.


Feels Like: 92 °F
Forecast: 76 / 90 °F
Wind: 8 mph from North

Location: Kuching Airport

Current Time: Sep 21, 2014 at 6:58:15 PM

Latest Report: Sep 21, 2014 at 6:30 PM


Visibility: 4 mi

Pressure: 29.80 "Hg

Humidity: 74%

Dew point: 75 °F

Location of KuchingLocation

Historic Weather in Kuching — Graph

°F

Kuching temperature yesterday

Maximum temperature yesterday: 93 °F (at 2:00 PM)
Minimum temperature yesterday: 75 °F (at 2:30 AM)
Average temperature yesterday: 82 °F

Past Weeks' High & Low Weather Summary

 TemperatureHumidityPressure
High95 °F (Sep 13, 1:30 PM)94% (Sep 6, 8:00 PM)29.95 "Hg (Sep 6, 8:00 PM)
Low72 °F (Sep 6, 11:00 PM)53% (Sep 10, 2:30 PM)29.65 "Hg (Sep 16, 3:30 PM)
Average82 °F79%29.82 "Hg
* Reported Sep 6 5:00 PM — Sep 21 5:30 PM, Kuching, Weather by CustomWeather, © 2014

Note: Actual official high and low records may vary slightly from our data, if they occured in-between our weather recording intervals... More about our weather records

Advertising

Kuching weather history for previous 24 hours

 ConditionsComfort  
Time TempWeatherWind HumidityBarometerVisibility
5:30 PM
Sep 21
88 °FBroken clouds.9 mph70%29.77 "Hg4 mi
5:00 PM90 °FBroken clouds.8 mph67%29.77 "Hg5 mi
4:30 PM90 °FBroken clouds.7 mph67%29.77 "Hg5 mi
4:00 PM91 °FBroken clouds.5 mph56%29.77 "Hg5 mi
3:30 PM91 °FBroken clouds.3 mph59%29.77 "Hg5 mi
3:00 PM93 °FBroken clouds.3 mph56%29.77 "Hg5 mi
2:30 PM91 °FBroken clouds.6 mph59%29.80 "Hg5 mi
2:00 PM91 °FBroken clouds.5 mph59%29.80 "Hg5 mi
1:30 PM91 °FBroken clouds.5 mph59%29.83 "Hg5 mi
1:00 PM91 °FBroken clouds.5 mph63%29.86 "Hg5 mi
12:30 PM91 °FBroken clouds.5 mph63%29.86 "Hg5 mi
12:00 PM90 °FBroken clouds.5 mph67%29.86 "Hg5 mi
11:30 AM90 °FBroken clouds.5 mph67%29.89 "Hg5 mi
11:00 AM88 °FBroken clouds.3 mph70%29.89 "Hg5 mi
10:30 AM86 °FBroken clouds.3 mph70%29.89 "Hg5 mi
10:00 AM86 °FBroken clouds.3 mph70%29.89 "Hg5 mi
9:30 AM84 °FBroken clouds.2 mph70%29.89 "Hg5 mi
9:00 AM82 °FBroken clouds.1 mph74%29.89 "Hg5 mi
8:30 AM81 °FBroken clouds.3 mph79%29.89 "Hg4 mi
8:00 AM79 °FBroken clouds.3 mph84%29.89 "Hg4 mi
7:30 AM77 °FBroken clouds.2 mph89%29.89 "Hg4 mi
7:00 AM75 °FPartly sunny.3 mph94%29.86 "Hg4 mi
6:30 AM75 °FBroken clouds.3 mph94%29.86 "Hg5 mi
6:00 AM77 °FPartly cloudy.2 mph89%29.83 "Hg4 mi
5:30 AM77 °FPartly cloudy.2 mph89%29.83 "Hg4 mi
5:00 AM77 °FPartly cloudy.5 mph89%29.83 "Hg4 mi
4:30 AM77 °FPassing clouds.6 mph89%29.83 "Hg4 mi
4:00 AM77 °FPassing clouds.3 mph89%29.83 "Hg5 mi
3:30 AM77 °FPartly cloudy.3 mph89%29.83 "Hg5 mi
3:00 AM77 °FPartly cloudy.6 mph89%29.83 "Hg4 mi
2:30 AM77 °FPartly cloudy.3 mph89%29.83 "Hg4 mi
2:00 AM77 °FPartly cloudy.6 mph89%29.83 "Hg5 mi
1:30 AM77 °FPartly cloudy.7 mph89%29.80 "Hg5 mi
9:30 PM
Sep 20
79 °FPartly cloudy.7 mph84%29.83 "Hg5 mi
9:00 PM81 °FPartly cloudy.8 mph84%29.83 "Hg5 mi
8:30 PM81 °FPartly cloudy.9 mph84%29.83 "Hg5 mi
8:00 PM81 °FPartly cloudy.7 mph84%29.80 "Hg5 mi
7:30 PM82 °FPartly cloudy.6 mph79%29.80 "Hg5 mi
7:00 PM82 °FPartly cloudy.7 mph79%29.77 "Hg5 mi
6:30 PM84 °FBroken clouds.8 mph70%29.77 "Hg5 mi
6:00 PM84 °FBroken clouds.12 mph70%29.77 "Hg5 mi
Weather by CustomWeather, © 2014

See weather overviewHow to use our weather pages